Glen Ullin Rgnl, Glen Ullin,, ND

5:55 AM MDT on April 24, 2018 (GMT -0600)
Glen Ullin Rgnl, Glen Ullin,

Weather History for KD57 - December, 2013

Change the Weather History Date:

Thursday, December 19, 2013

  Actual Average (KDIK) Record (KDIK)
Temperature  
Mean Temperature -7 °F -  
Max Temperature 6 °F 24 °F 62 °F (1979)
Min Temperature -20 °F 4 °F -37 °F (1929)
Degree Days  
Heating Degree Days 72    
Moisture  
Dew Point -9 °F    
Average Humidity 72    
Maximum Humidity 78    
Minimum Humidity 63    
Precipitation  
Precipitation 0.00 in - - ()
Sea Level Pressure  
Sea Level Pressure 30.10 in    
Wind  
Wind Speed 10 mph (NNE)    
Max Wind Speed 18 mph    
Max Gust Speed -    
Visibility 6 miles    
Events Snow    
Averages and records for this station are not official NWS values.
T = Trace of Precipitation, MM = Missing Value Source: NWS Daily Summary

Daily Weather History Graph

Daily Weather History Graph

Search for Another Location

Airport or City:

Astronomy

Dec. 19, 2013 Rise Set
Actual Time 7:28 AM MST 4:00 PM MST
Civil Twilight 6:53 AM MST 4:36 PM MST
Nautical Twilight 6:14 AM MST 5:14 PM MST
Astronomical Twilight 5:37 AM MST 5:51 PM MST
Moon 6:36 PM MST (12/19) 8:41 AM MST (12/19)
Length of Visible Light 9h 42m
Length of Day
8h 32m
Waning Gibbous, 95% of the Moon is Illuminated
Dec 19
Waning Gibbous
Dec 25
Last Quarter
Jan 1
New
Jan 7
First Quarter
Jan 15
Full

Hourly Weather History & Observations

Time (MST) Temp. Windchill Dew Point Humidity Pressure Visibility Wind Dir Wind Speed Gust Speed Precip Events Conditions
12:15 AM 6.8 °F -11.8 °F -0.4 °F 72% 30.02 in 10.0 mi NNE 17.3 mph - N/A   Overcast
12:35 AM 5.0 °F -12.3 °F -0.4 °F 78% 30.03 in 10.0 mi NNE 13.8 mph - N/A   Overcast
12:55 AM 5.0 °F -13.6 °F -2.2 °F 72% 30.03 in 10.0 mi NNE 16.1 mph - N/A   Overcast
1:15 AM 5.0 °F -12.3 °F -2.2 °F 72% 30.03 in 10.0 mi NNE 13.8 mph - N/A   Overcast
1:35 AM 5.0 °F -11.6 °F -2.2 °F 72% 30.03 in 10.0 mi NNE 12.7 mph - N/A   Overcast
1:55 AM 3.2 °F -17.1 °F -2.2 °F 78% 30.03 in 10.0 mi NE 18.4 mph - N/A   Overcast
2:15 AM 3.2 °F -16.5 °F -2.2 °F 78% 30.03 in 10.0 mi NE 17.3 mph - N/A   Overcast
2:35 AM 3.2 °F -16.5 °F -4.0 °F 72% 30.02 in 10.0 mi NE 17.3 mph - N/A   Overcast
2:55 AM 3.2 °F -14.6 °F -4.0 °F 72% 30.02 in 10.0 mi NE 13.8 mph - N/A   Overcast
3:15 AM 3.2 °F -13.1 °F -4.0 °F 72% 30.04 in 10.0 mi NE 11.5 mph - N/A   Overcast
3:35 AM 3.2 °F -11.3 °F -4.0 °F 72% 30.04 in 10.0 mi NE 9.2 mph - N/A   Overcast
3:55 AM 3.2 °F -11.3 °F -4.0 °F 72% 30.05 in 10.0 mi NNE 9.2 mph - N/A   Overcast
4:15 AM 3.2 °F -11.3 °F -4.0 °F 72% 30.05 in 10.0 mi NE 9.2 mph - N/A   Overcast
4:35 AM 3.2 °F -12.2 °F -4.0 °F 72% 30.05 in 10.0 mi NE 10.4 mph - N/A   Overcast
4:55 AM 3.2 °F -10.3 °F -4.0 °F 72% 30.05 in 10.0 mi NE 8.1 mph - N/A   Overcast
5:15 AM 3.2 °F -12.2 °F -4.0 °F 72% 30.06 in 10.0 mi NNE 10.4 mph - N/A   Overcast
5:35 AM 3.2 °F -13.1 °F -4.0 °F 72% 30.06 in 10.0 mi NNE 11.5 mph - N/A   Overcast
5:55 AM 3.2 °F -13.1 °F -4.0 °F 72% 30.05 in 10.0 mi NE 11.5 mph - N/A   Overcast
6:15 AM 3.2 °F -11.3 °F -4.0 °F 72% 30.08 in 10.0 mi NE 9.2 mph - N/A   Overcast
6:35 AM 3.2 °F -13.1 °F -4.0 °F 72% 30.08 in 1.2 mi NNE 11.5 mph - N/A Snow Light Snow
6:55 AM 1.4 °F -15.3 °F -4.0 °F 78% 30.09 in 1.0 mi NE 11.5 mph - N/A Snow Light Snow
7:15 AM 1.4 °F -13.5 °F -5.8 °F 72% 30.09 in 1.2 mi NE 9.2 mph - N/A Snow Light Snow
7:35 AM 1.4 °F -13.5 °F -5.8 °F 72% 30.10 in 0.5 mi NE 9.2 mph - N/A Snow Light Snow
7:55 AM 1.4 °F -13.5 °F -5.8 °F 72% 30.11 in 0.2 mi NNE 9.2 mph - N/A Snow Light Snow
8:15 AM 1.4 °F -15.3 °F -5.8 °F 72% 30.11 in 0.2 mi NNE 11.5 mph - N/A Snow Light Snow
8:35 AM 1.4 °F -14.5 °F -5.8 °F 72% 30.13 in 0.5 mi NNE 10.4 mph - N/A Snow Light Snow
8:55 AM 1.4 °F -15.3 °F -5.8 °F 72% 30.13 in 0.5 mi NNE 11.5 mph - N/A Snow Light Snow
9:15 AM 1.4 °F -14.5 °F -5.8 °F 72% 30.15 in 0.5 mi NNE 10.4 mph - N/A Snow Light Snow
9:35 AM 1.4 °F -14.5 °F -5.8 °F 72% 30.16 in 0.5 mi North 10.4 mph - N/A Snow Light Snow
9:55 AM 1.4 °F -13.5 °F -5.8 °F 72% 30.16 in 0.5 mi North 9.2 mph - N/A Snow Light Snow
10:15 AM 1.4 °F -15.3 °F -5.8 °F 72% 30.17 in 0.5 mi NNE 11.5 mph - N/A Snow Light Snow
10:35 AM 1.4 °F -15.3 °F -5.8 °F 72% 30.18 in 0.5 mi NNE 11.5 mph - N/A Snow Light Snow
10:55 AM 1.4 °F -16.1 °F -5.8 °F 72% 30.18 in 0.5 mi NNE 12.7 mph - N/A Snow Light Snow
11:15 AM 1.4 °F -15.3 °F -5.8 °F 72% 30.18 in 0.8 mi North 11.5 mph - N/A Snow Light Snow
11:35 AM 1.4 °F -15.3 °F -7.6 °F 66% 30.17 in 1.0 mi North 11.5 mph - N/A Snow Light Snow
11:55 AM 1.4 °F -14.5 °F -7.6 °F 66% 30.17 in 1.5 mi NNE 10.4 mph - N/A Snow Light Snow
12:15 PM 1.4 °F -13.5 °F -7.6 °F 66% 30.17 in 0.8 mi NNE 9.2 mph - N/A Snow Light Snow
12:35 PM 1.4 °F -11.3 °F -7.6 °F 66% 30.16 in 0.8 mi NNE 6.9 mph - N/A Snow Light Snow
12:55 PM 1.4 °F -8.3 °F -5.8 °F 72% 30.16 in 1.8 mi NNE 4.6 mph - N/A Snow Light Snow
1:15 PM 1.4 °F -9.9 °F -5.8 °F 72% 30.16 in 2.0 mi NNE 5.8 mph - N/A Snow Light Snow
1:35 PM 1.4 °F -11.3 °F -5.8 °F 72% 30.15 in 1.5 mi NE 6.9 mph - N/A Snow Light Snow
1:55 PM 1.4 °F -9.9 °F -5.8 °F 72% 30.14 in 2.0 mi NNE 5.8 mph - N/A Snow Light Snow
2:15 PM 1.4 °F -11.3 °F -5.8 °F 72% 30.13 in 3.0 mi NE 6.9 mph - N/A Snow Light Snow
2:35 PM 1.4 °F -9.9 °F -5.8 °F 72% 30.13 in 2.5 mi NNE 5.8 mph - N/A   Haze
2:55 PM 1.4 °F -11.3 °F -5.8 °F 72% 30.13 in 3.0 mi NNE 6.9 mph - N/A   Haze
3:15 PM 1.4 °F -9.9 °F -5.8 °F 72% 30.13 in 7.0 mi NNE 5.8 mph - N/A   Clear
3:35 PM 1.4 °F -9.9 °F -5.8 °F 72% 30.14 in 7.0 mi North 5.8 mph - N/A   Clear
3:55 PM 1.4 °F -8.3 °F -5.8 °F 72% 30.14 in 8.0 mi NNE 4.6 mph - N/A   Scattered Clouds
4:15 PM 1.4 °F - -5.8 °F 72% 30.14 in 6.0 mi Calm Calm - N/A   Haze
4:35 PM 1.4 °F - -5.8 °F 72% 30.13 in 4.0 mi Calm Calm - N/A Snow Light Snow
4:55 PM 1.4 °F - -5.8 °F 72% 30.13 in 7.0 mi Calm Calm - N/A   Overcast
5:15 PM 1.4 °F -8.3 °F -5.8 °F 72% 30.14 in 6.0 mi NNW 4.6 mph - N/A   Haze
5:35 PM -0.4 °F -13.4 °F -5.8 °F 78% 30.15 in 10.0 mi NW 6.9 mph - N/A   Overcast
5:55 PM -0.4 °F -13.4 °F -7.6 °F 72% 30.15 in 9.0 mi NW 6.9 mph - N/A   Overcast
6:15 PM -2.2 °F - -9.4 °F 71% 30.15 in 10.0 mi Calm Calm - N/A   Overcast
6:35 PM -4.0 °F - -9.4 °F 78% 30.13 in 10.0 mi Calm Calm - N/A   Scattered Clouds
6:55 PM -5.8 °F - -13.0 °F 71% 30.13 in 10.0 mi Calm Calm - N/A   Partly Cloudy
7:15 PM -9.4 °F -20.9 °F -16.6 °F 71% 30.13 in 10.0 mi West 4.6 mph - N/A   Clear
7:35 PM -9.4 °F -18.6 °F -16.6 °F 71% 30.12 in 10.0 mi West 3.5 mph - N/A   Clear
7:55 PM -11.2 °F - -18.4 °F 70% 30.11 in 10.0 mi Calm Calm - N/A   Clear
8:15 PM -13.0 °F -22.7 °F -20.2 °F 70% 30.11 in 10.0 mi West 3.5 mph - N/A   Clear
8:35 PM -14.8 °F - -22.0 °F 70% 30.10 in 10.0 mi Calm Calm - N/A   Clear
8:55 PM -14.8 °F - -20.2 °F 77% 30.09 in 10.0 mi Calm Calm - N/A   Clear
9:15 PM -14.8 °F -27.2 °F -22.0 °F 70% 30.09 in 10.0 mi SSE 4.6 mph - N/A   Clear
9:35 PM -14.8 °F - -22.0 °F 70% 30.08 in 10.0 mi Calm Calm - N/A   Clear
9:55 PM -14.8 °F - -22.0 °F 70% 30.09 in 10.0 mi Calm Calm - N/A   Clear
10:15 PM -16.6 °F - -23.8 °F 70% 30.09 in 10.0 mi Calm Calm - N/A   Clear
10:35 PM -16.6 °F - -23.8 °F 70% 30.08 in 10.0 mi Calm Calm - N/A   Partly Cloudy
10:55 PM -20.2 °F -33.5 °F -29.2 °F 63% 30.08 in 10.0 mi West 4.6 mph - N/A   Clear
11:15 PM -16.6 °F - -23.8 °F 70% 30.08 in 10.0 mi Calm Calm - N/A   Clear
11:35 PM -16.6 °F - -25.6 °F 64% 30.07 in 10.0 mi Calm Calm - N/A   Clear
11:55 PM -16.6 °F - -23.8 °F 70% 30.06 in 10.0 mi Calm Calm - N/A   Clear